Bishops Head, MD NWLON current weather conditions

sailwx.info

Wind from 311 at 7 knots gusting 11

Air temperature 2.8° C
Water temperature 2.8° C

Last reported at 2014-Dec-20 01:42 UTC.
Time now 2014-Dec-20 02:16 UTC

Location: N 38°13' W 076°02'.
View on Google Maps.

See reports from other nearby stations

  
Tides and Currents Weather Stations Pressure Air Temp Water Temp Dewpoint Dewpoint Depression Visibility Wind Speed Wind Dir Waves Ship Positions
date/time (UTC)wind fromknots sea level pressurealtimeterstation pressurevisibilityair tempwater tempwave heightnotes
2014-Dec-20 01:42 311 7 gusting 11 2.8 2.8
2014-Dec-20 01:36 308 9 gusting 11 3.3 3.3
2014-Dec-20 01:30 310 9 gusting 12 2.8 3.3
2014-Dec-20 01:24 312 8 gusting 12 2.8 3.3
2014-Dec-20 01:18 312 9 gusting 12 2.8 3.3
2014-Dec-20 01:12 309 10 gusting 12 3.3 2.8
2014-Dec-20 01:06 309 9 gusting 12 3.3 2.8
2014-Dec-20 01:00 310 9 gusting 11 2.8 2.8
2014-Dec-20 00:54 315 8 gusting 10 2.8 2.8
2014-Dec-20 00:48 314 8 gusting 11 2.8 2.8
2014-Dec-20 00:42 312 7 gusting 9 2.8 2.8
2014-Dec-20 00:36 311 7 gusting 9 2.8 2.8
2014-Dec-20 00:30 314 6 gusting 7 2.2 2.8
2014-Dec-20 00:24 320 5 gusting 6 1.7 2.8
2014-Dec-20 00:18 316 5 gusting 6 1.7 2.8
2014-Dec-20 00:12 321 6 gusting 6 1.7 3.3
2014-Dec-20 00:06 323 5 gusting 6 2.2 3.3
2014-Dec-19 23:48 319 5 gusting 6 2.2 3.3
2014-Dec-19 23:36 325 6 gusting 6 1.7 3.3
2014-Dec-19 23:30 331 6 gusting 6 1.7 3.3
2014-Dec-19 23:24 325 3 gusting 3 1.7 3.3
2014-Dec-19 23:18 322 3 gusting 4 1.7 3.3
2014-Dec-19 23:12 321 3 gusting 5 1.7 3.3
2014-Dec-19 23:06 320 5 gusting 6 1.7 3.3
2014-Dec-19 23:00 331 4 gusting 6 1.7 3.3
2014-Dec-19 22:54 335 4 gusting 6 1.7 3.3
2014-Dec-19 22:48 331 5 gusting 7 2.2 3.3
2014-Dec-19 22:36 333 5 gusting 7 2.8 3.3
2014-Dec-19 22:30 328 6 gusting 7 2.8 3.3
2014-Dec-19 22:24 326 6 gusting 7 2.8 3.3
2014-Dec-19 22:12 322 7 gusting 11 3.3 3.3
2014-Dec-19 22:06 329 7 gusting 9 3.3 3.3
2014-Dec-19 22:00 326 7 gusting 10 3.3 3.3
2014-Dec-19 21:54 336 7 gusting 11 3.3 3.3
2014-Dec-19 21:48 325 9 gusting 13 3.3 3.3
2014-Dec-19 21:36 316 10 gusting 12 3.3 3.3
2014-Dec-19 21:30 314 10 gusting 12 3.3 3.3
2014-Dec-19 21:24 321 5 gusting 6 3.3 3.3
2014-Dec-19 21:18 321 4 gusting 12 3.3 3.3
2014-Dec-19 21:12 320 6 gusting 8 3.3 3.3
2014-Dec-19 21:06 318 8 gusting 12 3.3 3.3
2014-Dec-19 21:00 332 6 gusting 12 3.3 3.3
2014-Dec-19 20:54 308 9 gusting 14 3.3 3.3
2014-Dec-19 20:48 312 11 gusting 13 3.3 3.9
2014-Dec-19 20:36 322 8 gusting 13 3.3 3.9
2014-Dec-19 20:30 327 8 gusting 12 3.3 3.9
2014-Dec-19 20:24 319 9 gusting 12 3.3 3.9
2014-Dec-19 20:18 329 9 gusting 13 3.3 3.9
2014-Dec-19 20:12 332 9 gusting 15 3.3 3.3
2014-Dec-19 20:06 328 10 gusting 14 3.3 3.3
2014-Dec-19 19:54 310 9 gusting 14 3.3 3.3
2014-Dec-19 19:48 314 13 gusting 14 3.3 3.3
2014-Dec-19 19:36 327 11 gusting 13 3.3 3.9
2014-Dec-19 19:30 325 9 gusting 12 3.3 3.9
2014-Dec-19 19:24 313 8 gusting 13 3.3 3.9
2014-Dec-19 19:18 319 8 gusting 14 3.3 3.9
2014-Dec-19 19:12 314 12 gusting 13 2.8 3.9
2014-Dec-19 19:06 331 9 gusting 13 2.8 3.9
2014-Dec-19 19:00 323 13 gusting 16 2.8 3.9
2014-Dec-19 18:54 312 12 gusting 14 2.8 3.9
2014-Dec-19 18:48 316 12 gusting 14 2.8 3.9
2014-Dec-19 18:36 317 12 gusting 15 2.8 3.9
2014-Dec-19 18:30 315 13 gusting 15 2.8 3.9
2014-Dec-19 18:24 312 12 gusting 14 2.8 3.9
2014-Dec-19 18:18 313 11 gusting 15 2.8 3.9
2014-Dec-19 18:12 312 13 gusting 17 2.8 3.9
2014-Dec-19 18:06 308 13 gusting 17 2.8 3.9
2014-Dec-19 18:00 313 12 gusting 13 2.8 3.9
2014-Dec-19 17:54 324 9 gusting 16 2.8 3.9
2014-Dec-19 17:42 332 10 gusting 16 2.8 3.9
2014-Dec-19 17:36 328 11 gusting 16 2.8 3.9
2014-Dec-19 17:30 315 13 gusting 15 2.8 3.9
2014-Dec-19 17:24 325 13 gusting 17 2.8 3.9
2014-Dec-19 17:18 314 13 gusting 18 2.8 3.9
2014-Dec-19 17:12 310 14 gusting 16 2.8 3.9
2014-Dec-19 17:06 318 12 gusting 17 2.8 3.9
2014-Dec-19 17:00 330 12 gusting 15 2.8 3.9
2014-Dec-19 16:54 324 12 gusting 16 2.8 3.9
2014-Dec-19 16:48 3.9
2014-Dec-19 16:24 336 9 gusting 15 2.8 3.9
2014-Dec-19 16:18 337 12 gusting 15 2.8 3.9
2014-Dec-19 16:12 331 12 gusting 15 2.8 3.9
2014-Dec-19 16:06 328 12 gusting 17 2.8 3.9
2014-Dec-19 16:00 327 13 gusting 17 2.8 3.3
2014-Dec-19 15:54 321 12 gusting 15 2.8 3.3
2014-Dec-19 15:48 322 12 gusting 14 2.8 3.3
2014-Dec-19 15:42 316 12 gusting 18 2.8 3.9
2014-Dec-19 15:36 315 11 gusting 17 2.8 3.9
2014-Dec-19 15:30 308 14 gusting 15 2.8 3.9
2014-Dec-19 15:24 323 10 gusting 13 2.8 3.9
2014-Dec-19 15:18 331 8 gusting 13 2.8 3.3
2014-Dec-19 15:12 315 9 gusting 12 2.8 3.3
2014-Dec-19 15:06 335 8 gusting 13 2.8 3.3
2014-Dec-19 15:00 325 8 gusting 12 2.8 3.3
2014-Dec-19 14:54 331 10 gusting 14 2.2 3.3
2014-Dec-19 14:48 317 7 gusting 13 2.8 3.3
2014-Dec-19 14:36 328 9 gusting 13 2.8 3.3
2014-Dec-19 14:30 331 11 gusting 16 2.2 3.3
2014-Dec-19 14:24 322 12 gusting 15 2.2 3.3
2014-Dec-19 14:18 321 12 gusting 17 2.2 3.3
2014-Dec-19 14:12 324 11 gusting 14 2.2 3.3
2014-Dec-19 14:06 330 11 gusting 15 2.2 3.3
2014-Dec-19 14:00 314 12 gusting 16 2.2 3.3
2014-Dec-19 13:54 324 9 gusting 15 2.2 3.3
2014-Dec-19 13:48 322 12 gusting 15 2.2 3.3
2014-Dec-19 13:36 324 11 gusting 17 2.2 3.3
2014-Dec-19 13:30 317 11 gusting 13 2.2 3.3
2014-Dec-19 13:24 323 11 gusting 14 2.2 3.3
2014-Dec-19 13:18 325 9 gusting 15 2.2 3.3
2014-Dec-19 13:12 334 11 gusting 13 2.8 3.3
2014-Dec-19 13:06 324 9 gusting 13 2.2 3.3
2014-Dec-19 13:00 327 7 gusting 11 1.7 3.3
2014-Dec-19 12:54 322 10 gusting 13 1.7 3.3
2014-Dec-19 12:48 327 8 gusting 11 1.7 3.3
2014-Dec-19 12:36 324 8 gusting 13 1.7 3.3
2014-Dec-19 12:30 320 11 gusting 12 1.7 3.3
2014-Dec-19 12:24 325 7 gusting 11 1.7 3.3
2014-Dec-19 12:18 324 8 gusting 12 1.7 3.3
2014-Dec-19 12:12 323 7 gusting 9 1.1 3.3
2014-Dec-19 12:06 324 6 gusting 10 1.1 3.3
2014-Dec-19 12:00 322 7 gusting 10 1.1 3.3
2014-Dec-19 11:54 320 7 gusting 10 1.1 3.3
2014-Dec-19 11:48 325 8 gusting 10 1.1 3.3
2014-Dec-19 11:36 3.3
2014-Dec-19 11:30 328 6 gusting 9 1.1 3.3
2014-Dec-19 11:24 325 6 gusting 9 1.1 3.3
2014-Dec-19 11:18 331 6 gusting 8 1.1 3.3
2014-Dec-19 11:12 330 6 gusting 8 1.1 3.3
2014-Dec-19 11:06 328 6 gusting 7 1.1 3.3
2014-Dec-19 11:00 330 6 gusting 9 1.1 3.3
2014-Dec-19 10:54 327 7 gusting 9 1.1 3.3
2014-Dec-19 10:48 325 6 gusting 9 1.1 3.3
2014-Dec-19 10:42 329 7 gusting 10 1.1 3.3
2014-Dec-19 10:36 331 6 gusting 8 1.1 3.9
2014-Dec-19 10:30 327 6 gusting 10 1.1 3.9
2014-Dec-19 10:24 328 7 gusting 10 1.1 3.9
2014-Dec-19 10:18 3.9
2014-Dec-19 10:12 329 7 gusting 9 1.7 3.9
2014-Dec-19 10:06 326 8 gusting 12 1.7 3.9
2014-Dec-19 10:00 323 9 gusting 13 1.7 3.9
2014-Dec-19 09:54 318 8 gusting 10 1.7 3.9
2014-Dec-19 09:48 317 9 gusting 11 1.7 3.9
2014-Dec-19 09:36 322 8 gusting 11 1.7 3.9
2014-Dec-19 09:30 327 8 gusting 12 2.2 3.9
2014-Dec-19 09:24 327 10 gusting 12 2.2 3.9
2014-Dec-19 09:18 328 7 gusting 11 2.2 3.9
2014-Dec-19 09:12 326 10 gusting 12 2.2 3.9
2014-Dec-19 09:06 326 7 gusting 12 2.2 3.9
2014-Dec-19 09:00 327 10 gusting 12 2.2 3.9
2014-Dec-19 08:54 326 10 gusting 13 2.2 3.9
2014-Dec-19 08:48 330 7 gusting 10 2.2 3.9
2014-Dec-19 08:36 326 9 gusting 11 2.2 3.9
2014-Dec-19 08:30 330 7 gusting 9 2.2 3.9
2014-Dec-19 08:24 327 7 gusting 9 2.2 3.9
2014-Dec-19 08:18 327 6 gusting 9 2.2 3.9
2014-Dec-19 08:12 333 7 gusting 9 2.2 3.9
2014-Dec-19 08:06 331 6 gusting 11 2.2 3.9
2014-Dec-19 08:00 334 7 gusting 10 2.2 4.4
2014-Dec-19 07:54 334 9 gusting 12 2.2 4.4
2014-Dec-19 07:48 325 8 gusting 11 2.2 4.4
2014-Dec-19 07:42 325 9 gusting 13 2.2 4.4
2014-Dec-19 07:36 320 9 gusting 13 2.2 4.4
2014-Dec-19 07:30 317 10 gusting 13 2.8 4.4
2014-Dec-19 07:24 326 7 gusting 11 2.2 4.4
2014-Dec-19 07:18 323 9 gusting 12 2.2 4.4
2014-Dec-19 07:12 327 7 gusting 11 2.2 4.4
2014-Dec-19 07:06 323 9 gusting 11 2.2 4.4
2014-Dec-19 07:00 326 8 gusting 10 2.2 4.4
2014-Dec-19 06:54 323 8 gusting 10 2.2 4.4
2014-Dec-19 06:48 322 8 gusting 11 2.8 4.4
2014-Dec-19 06:36 319 9 gusting 10 2.8 4.4
2014-Dec-19 06:30 323 6 gusting 9 2.2 4.4
2014-Dec-19 06:24 328 6 gusting 9 2.2 4.4
2014-Dec-19 06:18 330 6 gusting 7 2.2 4.4
2014-Dec-19 06:12 326 6 gusting 7 2.2 4.4
2014-Dec-19 06:06 325 6 gusting 8 2.2 4.4
2014-Dec-19 06:00 327 6 gusting 8 2.2 4.4
2014-Dec-19 05:54 325 6 gusting 8 2.2 4.4
2014-Dec-19 05:48 324 6 gusting 10 2.2 4.4
2014-Dec-19 05:42 324 7 gusting 10 2.2 4.4
2014-Dec-19 05:36 326 7 gusting 9 2.2 4.4
2014-Dec-19 05:30 324 6 gusting 9 2.2 4.4
2014-Dec-19 05:24 320 6 gusting 8 2.2 4.4
2014-Dec-19 05:18 325 6 gusting 7 2.2 4.4
2014-Dec-19 05:12 328 5 gusting 6 2.2 4.4
2014-Dec-19 05:06 327 5 gusting 6 1.7 4.4
2014-Dec-19 05:00 4.4
2014-Dec-19 04:54 322 5 gusting 6 1.7 4.4
2014-Dec-19 04:48 323 5 gusting 6 1.7 4.4
2014-Dec-19 04:36 332 5 gusting 6 1.7 4.4
2014-Dec-19 04:30 332 5 gusting 6 1.7 4.4
2014-Dec-19 04:24 336 6 gusting 6 1.7 4.4
2014-Dec-19 04:18 340 4 gusting 6 2.2 4.4
2014-Dec-19 04:12 328 3 gusting 5 2.2 4.4
2014-Dec-19 04:06 332 3 gusting 4 2.2 4.4
2014-Dec-19 04:00 325 3 gusting 5 2.2 4.4
2014-Dec-19 03:54 319 4 gusting 5 2.8 4.4
2014-Dec-19 03:48 320 4 gusting 5 2.8 4.4
2014-Dec-19 03:36 310 3 gusting 4 2.8 4.4
2014-Dec-19 03:30 326 3 gusting 4 2.2 4.4
2014-Dec-19 03:24 345 2 gusting 3 2.2 4.4
2014-Dec-19 03:18 342 2 gusting 5 2.2 4.4
2014-Dec-19 03:12 329 5 gusting 6 2.8 4.4
2014-Dec-19 03:06 331 4 gusting 6 2.8 4.4
2014-Dec-19 03:00 335 5 gusting 7 2.8 4.4
2014-Dec-19 02:54 349 5 gusting 7 2.8 4.4
2014-Dec-19 02:48 332 6 gusting 7 2.8 4.4
2014-Dec-19 02:36 315 6 gusting 7 2.8 4.4
2014-Dec-19 02:30 327 5 gusting 7 2.8 4.4
2014-Dec-19 02:24 326 6 gusting 8 2.8 4.4
2014-Dec-19 02:18 324 6 gusting 9 2.8 4.4
2014-Dec-19 02:12 330 6 gusting 8 2.8 4.4
2014-Dec-19 02:06 324 6 gusting 7 2.8 4.4
2014-Dec-19 02:00 325 6 gusting 9 2.8 4.4
2014-Dec-19 01:54 328 7 gusting 8 2.8 4.4
2014-Dec-19 01:48 338 6 gusting 8 2.8 4.4
2014-Dec-19 01:42 338 6 gusting 8 2.8 4.4
2014-Dec-19 01:36 332 6 gusting 8 2.8 4.4
2014-Dec-19 01:30 328 7 gusting 9 2.8 4.4
2014-Dec-19 01:24 328 7 gusting 10 2.8 4.4
2014-Dec-19 01:18 329 6 gusting 10 2.8 4.4
2014-Dec-19 01:12 323 8 gusting 12 2.8 5.0
2014-Dec-19 01:06 327 9 gusting 10 2.8 5.0
2014-Dec-19 01:00 330 6 gusting 9 2.8 5.0
2014-Dec-19 00:54 329 7 gusting 13 2.8 5.0
2014-Dec-19 00:48 328 6 gusting 9 2.8 5.0
2014-Dec-19 00:42 326 7 gusting 9 2.8 5.0
2014-Dec-19 00:24 322 8 gusting 10 3.3 5.0
2014-Dec-19 00:18 326 6 gusting 7 2.8 5.0
2014-Dec-19 00:12 328 6 gusting 9 2.8 5.0
2014-Dec-19 00:06 327 7 gusting 9 2.8 5.0
2014-Dec-18 23:48 321 6 gusting 8 2.8 5.0
2014-Dec-18 23:36 5.0
2014-Dec-18 23:30 5.0
2014-Dec-18 23:24 325 7 gusting 10 3.3 5.0
2014-Dec-18 23:18 322 7 gusting 9 3.3 5.0
2014-Dec-18 23:12 328 6 gusting 10 2.8 5.0
2014-Dec-18 23:06 326 7 gusting 8 2.8 5.0
2014-Dec-18 23:00 323 7 gusting 8 2.2 5.0
2014-Dec-18 22:54 325 5 gusting 6 2.2 5.0
2014-Dec-18 22:48 334 4 gusting 5 2.2 5.0
2014-Dec-18 22:36 347 2 gusting 4 2.2 5.0
2014-Dec-18 22:30 5.0
2014-Dec-18 22:24 5.0
2014-Dec-18 22:18 337 4 gusting 5 1.7 5.0
2014-Dec-18 22:12 336 5 gusting 5 2.2 5.0
2014-Dec-18 22:06 340 4 gusting 5 2.2 5.6
2014-Dec-18 22:00 336 4 gusting 6 2.2 5.6
2014-Dec-18 21:54 340 5 gusting 5 2.8 5.6
2014-Dec-18 21:48 335 4 gusting 6 2.8 5.6
2014-Dec-18 21:42 346 5 gusting 7 3.3 5.6
2014-Dec-18 21:36 346 5 gusting 7 3.3 5.6
2014-Dec-18 21:30 338 6 gusting 9 3.3 5.6
2014-Dec-18 21:24 325 6 gusting 9 3.9 5.6
2014-Dec-18 21:18 322 6 gusting 9 3.9 5.6
2014-Dec-18 21:12 325 8 gusting 10 3.9 5.6
2014-Dec-18 21:06 319 7 gusting 13 3.9 5.6
2014-Dec-18 21:00 318 9 gusting 13 3.9 5.6
2014-Dec-18 20:54 311 9 gusting 11 3.9 5.6
2014-Dec-18 20:48 322 9 gusting 11 3.9 5.6
2014-Dec-18 20:36 319 9 gusting 13 4.4 5.6
2014-Dec-18 20:30 321 7 gusting 12 4.4 5.6
2014-Dec-18 20:24 335 8 gusting 13 4.4 5.6
2014-Dec-18 20:18 322 8 gusting 13 4.4 5.6
2014-Dec-18 20:12 310 13 gusting 15 4.4 5.6
2014-Dec-18 20:06 311 10 gusting 13 4.4 5.6
2014-Dec-18 20:00 320 9 gusting 13 3.9 5.6
2014-Dec-18 19:54 311 13 gusting 14 3.9 5.6
2014-Dec-18 19:48 313 9 gusting 13 3.9 5.6
2014-Dec-18 19:42 319 11 gusting 14 3.9 5.6
2014-Dec-18 19:36 320 13 gusting 16 3.9 5.6
2014-Dec-18 19:30 5.6
2014-Dec-18 19:24 5.6
2014-Dec-18 19:18 316 13 gusting 16 3.9 5.6
2014-Dec-18 19:12 317 12 gusting 16 3.9 5.6
2014-Dec-18 19:06 323 9 gusting 16 3.9 5.6
2014-Dec-18 19:00 312 13 gusting 17 3.9 5.6
2014-Dec-18 18:54 313 15 gusting 18 3.9 5.6
2014-Dec-18 18:48 314 15 gusting 18 3.9 5.0
2014-Dec-18 18:36 318 14 gusting 18 3.9 5.0
2014-Dec-18 18:30 311 13 gusting 19 3.9 5.0
2014-Dec-18 18:24 314 14 gusting 18 3.9 5.0
2014-Dec-18 18:18 317 15 gusting 19 3.9 5.0
2014-Dec-18 18:12 313 17 gusting 19 3.9 5.0
2014-Dec-18 18:06 308 17 gusting 19 3.9 5.0
2014-Dec-18 18:00 312 16 gusting 19 3.3 5.0
2014-Dec-18 17:54 312 15 gusting 19 3.3 5.0
2014-Dec-18 17:48 315 14 gusting 18 3.9 5.0
2014-Dec-18 17:36 315 16 gusting 19 3.3 5.0
2014-Dec-18 17:30 4.4
2014-Dec-18 17:24 4.4
2014-Dec-18 17:18 310 16 gusting 21 3.3 4.4
2014-Dec-18 17:12 315 15 gusting 20 3.3 5.0
2014-Dec-18 17:06 329 17 gusting 19 3.3 5.0
2014-Dec-18 17:00 318 16 gusting 19 3.3 4.4
2014-Dec-18 16:54 316 18 gusting 21 3.3 4.4
2014-Dec-18 16:48 315 13 gusting 19 3.3 4.4
2014-Dec-18 16:36 315 15 gusting 19 3.3 4.4
2014-Dec-18 16:30 300 17 gusting 19 3.3 4.4
2014-Dec-18 16:24 313 13 gusting 19 3.3 4.4
2014-Dec-18 16:18 307 15 gusting 21 3.3 4.4
2014-Dec-18 16:12 305 15 gusting 19 3.3 4.4
2014-Dec-18 16:06 310 16 gusting 19 3.3 4.4
2014-Dec-18 15:54 309 16 gusting 20 3.3 4.4
2014-Dec-18 15:48 309 18 gusting 21 3.3 4.4
2014-Dec-18 15:36 4.4
2014-Dec-18 15:30 317 15 gusting 21 3.3 4.4
2014-Dec-18 15:24 310 15 gusting 19 3.3 4.4
2014-Dec-18 15:18 327 14 gusting 19 3.3 4.4
2014-Dec-18 15:12 305 17 gusting 21 2.8 4.4
2014-Dec-18 15:06 305 15 gusting 20 2.8 4.4
2014-Dec-18 15:00 4.4
2014-Dec-18 14:54 310 18 gusting 20 3.3 4.4
2014-Dec-18 14:48 323 16 gusting 21 3.3 4.4
2014-Dec-18 14:36 322 13 gusting 19 3.3 4.4
2014-Dec-18 14:30 325 13 gusting 21 3.3 4.4
2014-Dec-18 14:24 321 12 gusting 18 3.3 4.4
2014-Dec-18 14:18 316 13 gusting 16 3.3 4.4
2014-Dec-18 14:12 330 12 gusting 17 3.3 4.4
2014-Dec-18 14:06 325 14 gusting 19 2.8 4.4
2014-Dec-18 14:00 321 13 gusting 19 2.8 4.4
2014-Dec-18 13:54 317 17 gusting 19 2.8 4.4
2014-Dec-18 13:48 311 14 gusting 19 2.8 4.4
2014-Dec-18 13:36 321 14 gusting 18 3.3 4.4
2014-Dec-18 13:30 308 16 gusting 18 3.3 4.4
2014-Dec-18 13:24 312 16 gusting 19 3.3 4.4
2014-Dec-18 13:18 314 16 gusting 18 2.8 4.4
2014-Dec-18 13:12 314 14 gusting 18 2.8 4.4
2014-Dec-18 13:06 313 14 gusting 18 2.8 4.4
2014-Dec-18 13:00 315 14 gusting 19 2.8 4.4
2014-Dec-18 12:54 316 13 gusting 16 2.8 4.4
2014-Dec-18 12:48 315 13 gusting 14 2.8 4.4
2014-Dec-18 12:36 319 12 gusting 17 2.8 4.4
2014-Dec-18 12:30 320 14 gusting 17 2.8 4.4
2014-Dec-18 12:24 314 12 gusting 13 2.8 4.4
2014-Dec-18 12:18 318 9 gusting 12 2.2 4.4
2014-Dec-18 12:12 325 7 gusting 12 2.2 4.4
2014-Dec-18 12:06 327 8 gusting 13 2.2 4.4
2014-Dec-18 12:00 327 11 gusting 14 2.8 4.4
2014-Dec-18 11:54 325 10 gusting 13 2.2 4.4
2014-Dec-18 11:48 323 11 gusting 13 2.2 4.4
2014-Dec-18 11:36 324 7 gusting 9 2.2 4.4
2014-Dec-18 11:30 329 7 gusting 13 2.2 4.4
2014-Dec-18 11:24 329 9 gusting 13 2.2 4.4
2014-Dec-18 11:18 325 8 gusting 12 2.2 4.4
2014-Dec-18 11:12 324 8 gusting 14 2.8 4.4
2014-Dec-18 11:06 317 11 gusting 14 2.8 4.4
2014-Dec-18 11:00 316 13 gusting 16 2.8 4.4
2014-Dec-18 10:54 319 13 gusting 15 2.8 4.4
2014-Dec-18 10:48 316 12 gusting 17 2.8 4.4
2014-Dec-18 10:36 314 14 gusting 16 3.3 4.4
2014-Dec-18 10:30 317 12 gusting 16 2.8 5.0
2014-Dec-18 10:24 313 13 gusting 18 3.3 5.0
2014-Dec-18 10:18 313 16 gusting 19 3.3 5.0
2014-Dec-18 10:12 318 16 gusting 19 3.3 5.0
2014-Dec-18 10:06 319 13 gusting 18 3.3 5.0
2014-Dec-18 10:00 327 9 gusting 13 2.8 5.6
2014-Dec-18 09:54 318 11 gusting 13 2.8 5.6
2014-Dec-18 09:48 327 11 gusting 14 2.8 5.6
2014-Dec-18 09:36 332 10 gusting 13 2.8 5.6
2014-Dec-18 09:30 329 11 gusting 22 2.8 5.6
2014-Dec-18 09:24 327 10 gusting 16 2.8 5.6
2014-Dec-18 09:18 326 11 gusting 14 2.8 5.6
2014-Dec-18 09:12 333 7 gusting 10 2.2 5.6
2014-Dec-18 09:06 328 8 gusting 12 2.8 5.6
2014-Dec-18 09:00 331 9 gusting 12 2.8 5.6
2014-Dec-18 08:54 337 8 gusting 13 2.8 5.6
2014-Dec-18 08:48 339 9 gusting 12 2.2 5.6
2014-Dec-18 08:36 331 9 gusting 13 2.2 5.6
2014-Dec-18 08:30 331 9 gusting 13 2.8 5.6
2014-Dec-18 08:24 333 8 gusting 12 2.8 5.6
2014-Dec-18 08:18 324 10 gusting 16 2.8 5.6
2014-Dec-18 08:12 324 13 gusting 17 3.3 6.1
2014-Dec-18 08:06 325 13 gusting 17 2.8 6.1
2014-Dec-18 08:00 326 13 gusting 16 3.3 6.1
2014-Dec-18 07:54 322 13 gusting 21 3.3 6.1
2014-Dec-18 07:48 325 15 gusting 19 3.3 6.1
2014-Dec-18 07:36 323 17 gusting 19 3.3 6.1
2014-Dec-18 07:30 325 13 gusting 18 3.3 6.1
2014-Dec-18 07:24 320 13 gusting 14 3.3 6.1
2014-Dec-18 07:18 327 10 gusting 14 3.3 6.1
2014-Dec-18 07:12 328 11 gusting 13 3.3 6.1
2014-Dec-18 07:06 329 9 gusting 14 3.3 6.1
2014-Dec-18 07:00 328 10 gusting 13 3.3 6.1
2014-Dec-18 06:54 324 10 gusting 13 3.3 6.1
2014-Dec-18 06:48 323 12 gusting 17 3.3 6.1
2014-Dec-18 05:42 330 9 gusting 13 3.3 6.1
2014-Dec-18 05:36 331 10 gusting 13 3.3 6.1
2014-Dec-18 05:30 326 6 gusting 9 3.3 6.7
2014-Dec-18 05:24 335 4 gusting 5 2.8 6.7
2014-Dec-18 05:18 333 3 gusting 5 2.8 6.7
2014-Dec-18 05:12 335 3 gusting 6 2.8 6.7
2014-Dec-18 05:06 330 5 gusting 7 3.3 6.7
2014-Dec-18 05:00 325 6 gusting 7 3.3 6.7
2014-Dec-18 04:54 325 6 gusting 8 3.3 6.7
2014-Dec-18 04:48 322 6 gusting 7 3.9 6.7
2014-Dec-18 04:36 331 5 gusting 7 3.9 6.7
2014-Dec-18 04:30 330 6 gusting 7 3.9 6.7
2014-Dec-18 04:24 333 6 gusting 9 4.4 6.7
2014-Dec-18 04:18 331 7 gusting 10 4.4 6.7
2014-Dec-18 04:12 338 7 gusting 10 4.4 6.7
2014-Dec-18 04:06 339 7 gusting 9 4.4 6.7
2014-Dec-18 04:00 345 6 gusting 7 4.4 6.7
2014-Dec-18 03:54 337 5 gusting 6 3.9 6.7
2014-Dec-18 03:48 337 5 gusting 7 3.9 6.7
2014-Dec-18 03:36 334 6 gusting 9 4.4 6.7
2014-Dec-18 03:30 338 6 gusting 9 4.4 6.7
2014-Dec-18 03:24 340 7 gusting 9 4.4 6.7
2014-Dec-18 03:18 342 6 gusting 8 4.4 6.7
2014-Dec-18 03:12 334 6 gusting 9 4.4 6.7
2014-Dec-18 03:06 332 6 gusting 11 5.0 6.7
2014-Dec-18 03:00 331 7 gusting 8 4.4 6.7
2014-Dec-18 02:54 330 7 gusting 9 4.4 6.7
2014-Dec-18 02:48 327 7 gusting 10 5.0 6.7
2014-Dec-18 02:36 325 6 gusting 7 5.6 6.7
2014-Dec-18 02:24 334 6 gusting 8 5.0 6.7
2014-Dec-18 02:18 326 6 gusting 9 5.6 6.7
2014-Dec-18 02:12 323 7 gusting 9 5.6 6.7
2014-Dec-18 02:06 321 7 gusting 12 5.6 6.7
2014-Dec-18 02:00 325 8 gusting 11 5.6 6.7